CZ-2C DEB, 43534

Orbit data source: Space-Track

CZ-2C DEB, 43534 is space debris in SSO originally from a launch on Mon, 09 Jul 2018 UTC launched from the Jiuquan Satellite Launch Center, China (JSC). Debris objects in space refer to the collection of defunct objects orbiting the Earth. Examples of debris include non-operational satellites, rocket bodies, and fragments generated from explosions, collisions, or faulty payload assembly.

Loading next visibility...
Identifier
43534, 2018-056F
Orbit
SSO
Country
Flag of CNCN / PRC
Related business
Manufacturer
CAST?
Mission
Spacecraft
Bus & Motor
Unknown
Mass
~50 kg wet, ~50 kg dry
Launch date (UTC)
2018-07-09 (8 years ago)
Launch vehicle
Unknown
Launch site
Jiuquan Satellite Launch Center, China (JSC)
Object type
Payload
Rocket body
Debris
Shape & HBR
Cone, 1.4 m
Radar Cross Section
3.657 m², Large (>1 m²)

Expand to show TLE details & history
Last TLE update: 12 hours ago

TLE from 12 hours ago
0 CZ-2C DEB
1 43534U 18056F   26127.02802993  .00016468  00000-0  56447-3 0  9994
2 43534  98.1204 313.9132 0012278 156.5776 203.6025 15.30213265427508
Epoch: 2026-05-07T00:40Z
TLE epoch observation values (Epoch: 2026-05-07T00:40:21.785Z)
Latitude
0.00002°
Longitude
78.94237°
Altitude
485.972 km
Speed
7.618 km/s
True Right ascension
20h 55m 39s
True Declination
0° 00' 00"
Sunlit
Object was in daylight at epoch
Visualization orbit readout
Latitude
Unknown
Longitude
Unknown
Altitude
Unknown
Speed
Unknown
Apparent Right ascension
Unknown
Apparent Declination
Unknown
Sunlit
N/A
Visualization observer readout
Local Sidereal Time
20:44:46
Azimuth
Unknown
Elevation
Unknown
Doppler factor
Unknown
Orbital elements
Apogee altitude
480.571 km
Perigee altitude
463.749 km
Semi-major axis
6,850.297 km
Eccentricity
0.00123
Inclination
98.1204°
RAAN
313.9132°
Arg. of periapsis
156.5776°
True anomaly
203.54625°
Mean anomaly
203.6025°
Eccentric anomaly
203.57437°
Mean motion
3.82806 °/min
Orbital period
94.04 mins
BSTAR
0.00056447
Loading maneuver chart data...
Computing Atmospheric mass density...
Loading historical data...
Loading historical data...
Loading historical data...
Loading historical data...
Loading historical data...
Loading historical data...
Loading historical data...

Documentation

Showing up to 5 results
|